This is the latest recevied weather packets stored in our database for station/object WE0DX-1. If no packets are shown the sender has not sent any weather packets the latest 10 day(s).
| Time | Temp. | Humidity | Pressure | Rain* | Wind** | Luminosity | Snow |
|---|---|---|---|---|---|---|---|
| 1778004001 | 8.89° C | 91% | 1012.2 hPa | 0 mm | - | 128 W/m² | - |
| 1778003697 | 8.89° C | 93% | 1012.2 hPa | 0 mm | - | 112 W/m² | - |
| 1778003394 | 8.89° C | 93% | 1012.1 hPa | 0 mm | - | 104 W/m² | - |
| 1778003091 | 8.89° C | 94% | 1012 hPa | 0 mm | - | 70 W/m² | - |
| 1778002787 | 8.89° C | 94% | 1012.2 hPa | 0 mm | - | 58 W/m² | - |
| 1778002483 | 8.89° C | 93% | 1012 hPa | 0 mm | - | 69 W/m² | - |
| 1778002181 | 8.89° C | 94% | 1012.2 hPa | 0 mm | - | 54 W/m² | - |
| 1778001879 | 8.89° C | 92% | 1012.2 hPa | 0 mm | - | 71 W/m² | - |
| 1778001578 | 8.89° C | 92% | 1012.3 hPa | 0 mm | - | 68 W/m² | - |
| 1778001275 | 8.89° C | 94% | 1012.7 hPa | 0 mm | - | 74 W/m² | - |
| 1778000972 | 8.89° C | 94% | 1012.4 hPa | 0 mm | - | 91 W/m² | - |
| 1778000668 | 8.89° C | 94% | 1012.7 hPa | 0 mm | - | 71 W/m² | - |
| 1778000364 | 8.89° C | 94% | 1012.4 hPa | 1.78 mm | - | 76 W/m² | - |
| 1778000060 | 8.89° C | 94% | 1012.1 hPa | 0 mm | - | 79 W/m² | - |
| 1777999755 | 8.89° C | 94% | 1012.1 hPa | 0 mm | - | 89 W/m² | - |
| 1777999453 | 8.89° C | 94% | 1012.1 hPa | 0 mm | - | 77 W/m² | - |
| 1777999151 | 8.89° C | 94% | 1012.1 hPa | 0 mm | - | 60 W/m² | - |
| 1777998849 | 9.44° C | 95% | 1012.2 hPa | 0 mm | - | 64 W/m² | - |
| 1777998548 | 8.89° C | 94% | 1012.3 hPa | 1.27 mm | - | 71 W/m² | - |
| 1777998243 | 8.89° C | 93% | 1012.2 hPa | 1.27 mm | - | 97 W/m² | - |
| 1777997940 | 8.33° C | 91% | 1012.1 hPa | 0 mm | - | 161 W/m² | - |
| 1777997637 | 8.33° C | 90% | 1012.1 hPa | 0 mm | - | 69 W/m² | - |
| 1777997334 | 8.33° C | 92% | 1012.4 hPa | 0 mm | - | 69 W/m² | - |
| 1777997033 | 8.89° C | 92% | 1012.7 hPa | 0 mm | - | 94 W/m² | - |
| 1777996729 | 8.89° C | 94% | 1012.7 hPa | 0 mm | - | 74 W/m² | - |
* Rain latest hour (hover to see other rain measurements)
** Current wind speed in m/s (hover to see current wind gust speed)